COSMOS 2292

导读 | 星芒AI

COSMOS 2292 是俄罗斯于1994年发射的一颗军用通信卫星,搭载于联盟号火箭,主要用于军事通信和情报传输。该卫星运行在近地轨道,具体轨道参数未公开。由于其军事用途,COSMOS 2292 的技术细节和任务内容高度机密。该卫星在轨期间为俄罗斯军队提供了关键的通信支持,是冷战后期至21世纪初俄罗斯空间战略的重要组成部分。

基本信息
目录编号:
23278
目录名称:
COSMOS 2292
国际标识:
1994-061A
轨道中心:
EARTH
卫星名称:
COSMOS 2292
卫星全名:
--
卫星状态:
在轨 (已飞行11361 天)
发射日期:
1994-09-27 UTC
国别 :
俄罗斯(独联体) (CIS)
星等 :
--
轨道信息
数据来源 国际轨道数据 AOE轨道数据
星历时间 2025-11-04T02:28:01+0800
8小时前
查看轨道信息
2025-11-02T10:00:00+0800
2天前
查看轨道信息
半长轴 7379.778km 7379.808km
偏心率 0.0826402 0.0826505
轨道倾角 82.971° 82.969°
近地点辐角 66.829° 71.550°
升交点赤经 79.845° 81.093°
平近点角 301.771° 269.348°
近地点 391.776km 391.728km
远地点 1611.51km 1611.618km
周期 105.154分钟 105.154分钟
每日圈数 13.694237 13.694154
详细信息
使用方式:
暂无
2D轨道图
3D轨道图
轨道高度分析图
轨道倾角分析图
轨道综合分析图
查看轨道综合分析图